Location: Marcé
(47.5801°N, 0.3280°W)
Time: 06:06:58
(UTC+01:00)

Explorer 7 - Pass Details

Date: 08 December 2021
Orbit: 483 x 674 km, 50.3° (Epoch: 21 January)

Event Time Altitude Azimuth Distance (km) Brightness Sun altitude
Rises 04:47:20 0° 217° (SW) 2,905 - -37.6°
Reaches altitude 10° 04:49:52 10° 207° (SSW) 1,969 - -37.2°
Maximum altitude 04:53:53 33° 144° (SE) 1,010 - -36.5°
Exits shadow 04:56:52 15° 87° (E) 1,580 9.8 -36.0°
Drops below altitude 10° 04:57:43 10° 81° (E) 1,868 10.3 -35.8°
Sets 05:00:04 0° 71° (ENE) 2,732 11.3 -35.5°
